This demonstration page uses our WeatherBlox Daily Observations layout. Learn more.

Left ArrowRight Arrow

Hourly Observations for September 10, 2020

Temp ( °F °C ) Dew Point ( °F °C ) Humidity (%) Winds ( mph kmh ) Pressure ( in mb ) Visibility ( mi km ) Precip ( " mm )
12:15 am 00:15 Cloudy 45 7.1 42 5.7 91 91 NNE 7 11 30.46 1031 10 16 N/A
12:35 am 00:35 Cloudy 45 7 42 5.7 92 92 N 3 6 30.45 1031 10 16 N/A
12:55 am 00:55 Cloudy 45 7 43 6 93 93 N 5 7 30.45 1031 10 16 N/A
1:15 am 01:15 Cloudy 45 7.1 43 6 93 93 N 3 6 30.45 1031 10 16 N/A
1:35 am 01:35 Cloudy 45 7.2 43 6 92 92 N 5 7 30.45 1031 10 16 N/A
1:55 am 01:55 Cloudy 45 7.2 43 6.1 93 93 N 3 6 30.44 1031 10 16 N/A
2:15 am 02:15 Cloudy 45 7 43 6 93 93 N 5 7 30.43 1030 10 16 N/A
2:35 am 02:35 Cloudy 45 7.1 43 6 93 93 N 6 9 30.43 1030 10 16 N/A
2:55 am 02:55 Cloudy 45 7.2 43 6 92 92 N 8 13 30.43 1030 10 16 N/A
3:15 am 03:15 Cloudy 45 7.2 42 5.7 90 90 NNE 9 15 30.43 1030 10 16 N/A
3:35 am 03:35 Cloudy 45 7 42 5.5 90 90 NNE 7 11 30.42 1030 10 16 N/A
3:55 am 03:55 Cloudy 44 6.8 42 5.6 92 92 N 5 7 30.41 1030 10 16 N/A
4:15 am 04:15 Cloudy 44 6.7 42 5.6 93 93 NNE 5 7 30.42 1030 10 16 N/A
4:35 am 04:35 Cloudy 44 6.7 42 5.6 93 93 NNE 7 11 30.42 1030 10 16 N/A
4:55 am 04:55 Cloudy 44 6.7 42 5.6 93 93 N 7 11 30.43 1031 10 16 N/A
5:15 am 05:15 Cloudy 44 6.7 42 5.6 93 93 N 5 7 30.43 1031 10 16 N/A
5:35 am 05:35 Cloudy 44 6.6 42 5.5 93 93 NNE 9 15 30.42 1030 10 16 N/A
5:55 am 05:55 Cloudy 43 6.3 42 5.3 93 93 N 6 9 30.43 1030 10 16 N/A
6:15 am 06:15 Cloudy 43 6.3 42 5.5 95 95 N 6 9 30.44 1031 10 16 N/A
6:35 am 06:35 Cloudy 43 6.3 42 5.5 95 95 N N/A 30.44 1031 10 16 N/A
6:55 am 06:55 Cloudy 44 6.5 42 5.6 94 94 N 3 6 30.44 1031 10 16 N/A
7:15 am 07:15 Cloudy 44 6.5 42 5.6 94 94 N N/A 30.45 1031 10 16 N/A
7:35 am 07:35 Cloudy 44 6.6 42 5.7 94 94 N 5 7 30.45 1031 10 16 N/A
7:55 am 07:55 Cloudy 44 6.7 42 5.6 93 93 N 6 9 30.46 1032 10 16 N/A
8:15 am 08:15 Cloudy 45 7 42 5.6 91 91 N 7 11 30.46 1031 10 16 N/A
8:35 am 08:35 Cloudy 45 7.2 42 5.7 90 90 N 5 7 30.45 1031 10 16 N/A
8:55 am 08:55 Cloudy 46 7.5 42 5.6 88 88 NNE 6 9 30.45 1031 10 16 N/A
9:15 am 09:15 Cloudy 46 7.8 42 5.4 85 85 NNE 8 13 30.43 1031 10 16 N/A
9:35 am 09:35 Cloudy 47 8.4 42 5.6 83 83 N 8 13 30.43 1030 10 16 N/A
9:55 am 09:55 Cloudy 48 9 41 5.2 77 77 N 7 11 30.43 1031 10 16 N/A
10:15 am 10:15 Cloudy 48 9.1 41 5 76 76 NNE 8 13 30.43 1031 10 16 N/A
10:35 am 10:35 Cloudy 50 10.1 42 5.8 75 75 NNE 10 17 30.42 1030 10 16 N/A
10:55 am 10:55 Mostly Cloudy 51 10.6 42 5.8 72 72 N 6 9 30.43 1030 10 16 N/A
11:15 am 11:15 Mostly Cloudy 51 10.8 42 5.6 71 71 N 9 15 30.41 1030 10 16 N/A
11:35 am 11:35 Cloudy 51 10.8 42 5.8 71 71 NNE 7 11 30.42 1030 10 16 N/A
11:55 am 11:55 Cloudy 52 11.3 43 6.2 71 71 N 7 11 30.40 1029 10 16 N/A
12:15 pm 12:15 Cloudy 52 11.2 43 6 71 71 NNE 5 7 30.41 1030 10 16 N/A
12:35 pm 12:35 Cloudy 54 12 44 6.7 70 70 NE 7 11 30.39 1029 10 16 N/A
12:55 pm 12:55 Cloudy 54 12.1 44 6.5 69 69 NE 3 6 30.38 1029 10 16 N/A
1:15 pm 13:15 Cloudy 55 12.5 44 6.9 69 69 NE 6 9 30.37 1028 10 16 N/A
1:35 pm 13:35 Cloudy 55 12.8 45 7.2 69 69 E 5 7 30.36 1028 10 16 N/A
1:55 pm 13:55 Cloudy 56 13.4 45 7.3 67 67 NNE 6 9 30.35 1028 10 16 N/A
2:15 pm 14:15 Cloudy 56 13.5 46 7.5 67 67 NNE 6 9 30.34 1027 10 16 N/A
2:35 pm 14:35 Cloudy 57 13.8 45 7.4 66 66 NE 5 7 30.32 1027 10 16 N/A
2:55 pm 14:55 Cloudy 58 14.2 46 7.5 64 64 NNE 3 6 30.32 1027 10 16 N/A
3:15 pm 15:15 Cloudy 58 14.6 46 7.6 63 63 NE 9 15 30.29 1026 10 16 N/A
3:35 pm 15:35 Cloudy 58 14.2 46 7.5 64 64 ENE 6 9 30.31 1026 10 16 N/A
3:55 pm 15:55 Cloudy 58 14.3 46 7.8 65 65 NE 6 9 30.29 1026 10 16 N/A
4:15 pm 16:15 Cloudy 58 14.2 46 7.7 65 65 NE 5 7 30.30 1026 10 16 N/A
4:35 pm 16:35 Cloudy 57 14.1 46 7.7 66 66 E 5 7 30.30 1026 10 16 N/A
4:55 pm 16:55 Cloudy 57 14 46 7.9 67 67 ENE 8 13 30.29 1026 10 16 N/A
5:15 pm 17:15 Cloudy 56 13.6 47 8.1 70 70 ENE 8 13 30.28 1025 10 16 N/A
5:35 pm 17:35 Cloudy 56 13.6 47 8.1 70 70 ENE 7 11 30.28 1025 10 16 N/A
5:55 pm 17:55 Cloudy 57 13.8 47 8.1 69 69 NE 8 13 30.28 1025 10 16 N/A
6:15 pm 18:15 Cloudy 56 13.4 47 8.3 71 71 ENE 8 13 30.27 1025 10 16 N/A
6:35 pm 18:35 Cloudy 56 13.1 47 8.2 72 72 ENE 8 13 30.28 1025 10 16 N/A
6:55 pm 18:55 Cloudy 55 13 47 8.3 73 73 ENE 8 13 30.28 1025 10 16 N/A
7:15 pm 19:15 Cloudy 55 12.5 47 8.5 77 77 ENE 7 11 30.28 1025 10 16 N/A
7:35 pm 19:35 Cloudy 54 12.2 48 8.7 79 79 ENE 5 7 30.28 1026 10 16 N/A
7:55 pm 19:55 Cloudy 54 12.1 48 8.7 80 80 ENE 3 6 30.28 1026 10 16 N/A
8:15 pm 20:15 Cloudy 54 12 48 8.9 82 82 ENE 3 6 30.29 1026 10 16 N/A
8:35 pm 20:35 Cloudy 53 11.8 48 8.9 83 83 ENE 7 11 30.29 1026 10 16 N/A
8:55 pm 20:55 Cloudy 53 11.6 48 9 84 84 E 6 9 30.30 1026 10 16 N/A
9:15 pm 21:15 Cloudy 53 11.5 48 8.9 84 84 E 6 9 30.31 1026 10 16 N/A
9:35 pm 21:35 Cloudy 53 11.5 48 8.9 84 84 ENE 5 7 30.31 1026 10 16 N/A
9:55 pm 21:55 Cloudy 52 11.3 48 9 86 86 ENE 3 6 30.31 1026 10 16 N/A
10:15 pm 22:15 Cloudy 52 11.1 48 9 87 87 N N/A 30.31 1027 10 16 N/A
10:35 pm 22:35 Cloudy 52 11.1 48 9.1 88 88 NE 5 7 30.30 1026 10 16 N/A
10:55 pm 22:55 Cloudy 51 10.8 48 9.1 89 89 ENE 5 7 30.31 1026 7 11 N/A
11:15 pm 23:15 Cloudy with Mist and Fog 51 10.5 49 9.5 94 94 ENE 3 6 30.31 1026 4 6 N/A
11:35 pm 23:35 Cloudy with Mist and Fog 51 10.4 49 9.6 95 95 ENE 3 6 30.30 1026 3 5 N/A
11:55 pm 23:55 Cloudy with Mist and Fog 51 10.4 49 9.6 95 95 ENE 6 9 30.30 1026 3 5 N/A

Powered by AerisWeather